    Orbital elements:
    2020 MK                                                  Earth MOID = 0.0222 AU
    Epoch 2020 May 31.0 TT = JDT 2459000.5                  Pan
    M 324.83860              (2000.0)            P               Q
    n   0.45165696     Peri.  258.49647     +0.98760164     -0.01853168
    a   1.6824038      Node   102.42228     +0.07444958     +0.92952180
    e   0.6119379      Incl.    9.18485     -0.13820370     +0.36830122
    P   2.18           H   22.5           G   0.15           U   8
    Residuals in seconds of arc
    200617 F52  0.0   0.0     200618 858  0.1+  0.1-    200618 160  0.3+  0.1+
    200617 F52  0.0   0.0     200618 858  0.1-  0.1-    200618 958  0.2+  0.4-
    200617 F52  0.1-  0.0     200618 H36  0.3+  0.2+    200618 160  0.2+  0.1-
    200617 F52  0.1-  0.0     200618 H36  0.2-  0.1+    200618 160  0.1+  0.2+
    200617 L01  0.2+  0.1-    200618 H36  0.6-  0.1+    200618 160  0.2+  0.2+
    200617 L01  0.2+  0.2-    200618 U55  0.5-  0.1-    200618 958  0.1+  0.0
    200617 L01  0.1+  0.3-    200618 U55  0.1+  0.4+    200618 I93  0.1+  0.0
    200617 B49  0.6-  0.3+    200618 U55  0.0   0.1+    200618 K87  0.1+  0.2-
    200617 L01  0.4-  0.1-    200618 654  0.1+  0.2-    200618 I93  0.2-  0.0
    200617 L01  0.4+  0.0     200618 654  0.0   0.2-    200618 I93  0.2+  0.1-
    200617 B49  0.1-  0.1+    200618 654  0.0   0.2-    200618 K87  0.2+  0.1+
    200617 204  0.7+  0.1+    200618 E23  0.6+  0.2+    200618 K87  0.3-  0.2-
    200617 204  0.2+  0.0     200618 E23  0.7+  0.5+    200618 J04  0.1+  0.1-
    200617 204  0.1+  0.3-    200618 K83 (1.6-  1.0+)   200618 J04  0.2+  0.2-
    200618 H21  0.1-  0.1+    200618 K83  1.4-  0.6+    200618 J04  0.6+  0.3-
    200618 V01  0.1-  0.3+    200618 K83  1.0-  0.4+    200619 H21  0.2-  0.1-
    200618 H21  0.1-  0.1+    200618 104  0.1+  0.1+    200619 H21  0.2-  0.1+
    200618 H21  0.3-  0.1+    200618 104  0.2+  0.3-    200619 H21  0.1+  0.1-
    200618 H21  0.5-  0.3-    200618 104  0.4+  0.1-    200619 H21  0.2-  0.1+
    200618 V01  0.1+  0.1+    200618 958  0.0   0.1+    200619 H21  0.2-  0.0
    200618 V01 (1.3+  1.6+)   200618 958  0.1+  0.2-    200619 H21  0.2-  0.1+
    200618 858  0.1+  0.2-    200618 160  0.3+  0.2-    200619 H21  0.1-  0.0
    
    Ephemeris:
    2020 MK                  a,e,i = 1.68, 0.61, 9                   q = 0.6529
    Date    TT    R. A. (2000) Decl.     Delta      r    Elong.  Phase     V
    2020 05 20    17 54 12.8 -06 16 50   0.4349  1.3952   146.4    23.7    22.5
    ...
    2020 06 04    17 51 03.8 -02 57 09   0.2544  1.2502   155.3    19.8    21.0
    ...
    2020 06 12    17 41 33.3 +00 13 34   0.1668  1.1700   156.1    20.6    20.0
    ...
    2020 06 18    17 23 10.7 +05 05 54   0.1049  1.1089   150.9    26.4    19.0
    2020 06 19    17 17 47.6 +06 26 31   0.09497 1.0987   149.1    28.4    18.8
    2020 06 20    17 11 08.6 +08 04 17   0.08520 1.0885   146.7    30.8    18.7
    ...
    2020 06 26    14 58 58.8 +33 03 32   0.03550 1.0269   106.0    72.1    17.8
    ...
    2020 07 04    07 29 28.2 +23 34 42   0.07212 0.9454     8.4   171.0    34.8
    ...
    2020 07 19    06 36 37.4 +12 41 48   0.2330  0.8017    20.2   154.0    28.1
    
    M. P. C. Staff               (C) Copyright 2020 MPC           M.P.E.C. 2020-M29
    


    Read MPEC 2020-M28 Read MPEC 2020-M30


    MPEC number:

    Enter an MPEC number in one of the following forms:

    • 1997-B01 (the full form)
    • J97B01 (the packed version of the full form)
    • B01 (the abbreviated form)